| time (UTC) | temp F | wind direction | speed knots | gust knots | rain 1hr in | rain 24hr in | rain mn in | humidity % | barometer mb |
| 20260902103050 | 77 | 193 | 0.0 | 0.0 | 0.00 | 0.00 | 0.00 | 67 | 989.3 |
| 20260902101550 | 77 | 193 | 0.0 | 0.0 | 0.00 | 0.00 | 0.00 | 67 | 989.1 |
| 20260902100049 | 77 | 193 | 0.0 | 0.0 | 0.00 | 0.00 | 0.00 | 66 | 989.2 |
| 20260902094554 | 77 | 193 | 0.0 | 0.0 | 0.00 | 0.00 | 0.00 | 66 | 989.1 |
| 20260902093047 | 77 | 193 | 0.0 | 2.6 | 0.00 | 0.00 | 0.00 | 67 | 989.1 |
| 20260902091528 | 77 | 187 | 0.0 | 0.0 | 0.00 | 0.00 | 0.00 | 68 | 989.2 |
| 20260902090025 | 78 | 146 | 0.0 | 0.0 | 0.00 | 0.00 | 0.00 | 68 | 989.3 |
| 20260902084514 | 78 | 146 | 0.0 | 0.0 | 0.00 | 0.00 | 0.00 | 69 | 989.4 |
| 20260902083006 | 78 | 146 | 0.0 | 0.0 | 0.00 | 0.00 | 0.00 | 69 | 989.5 |
| 20260902081554 | 79 | 146 | 0.0 | 0.0 | 0.00 | 0.00 | 0.00 | 69 | 989.5 |
| 20260902080048 | 79 | 146 | 0.0 | 0.0 | 0.00 | 0.00 | 0.00 | 68 | 989.6 |
| 20260902074530 | 79 | 146 | 0.0 | 0.0 | 0.00 | 0.00 | 0.00 | 68 | 989.7 |
| 20260902073029 | 80 | 146 | 0.0 | 0.0 | 0.00 | 0.00 | 0.00 | 68 | 989.9 |
| 20260902071516 | 80 | 146 | 0.0 | 0.0 | 0.00 | 0.00 | 0.00 | 67 | 990.0 |
| 20260902070016 | 81 | 146 | 0.0 | 0.0 | 0.00 | 0.00 | 0.00 | 67 | 990.0 |
| 20260902064523 | 81 | 146 | 0.0 | 0.0 | 0.00 | 0.00 | 0.00 | 67 | 989.9 |
| 20260902063017 | 81 | 146 | 0.9 | 3.5 | 0.00 | 0.00 | 0.00 | 67 | 990.0 |
| 20260902061519 | 82 | 146 | 2.6 | 4.3 | 0.00 | 0.00 | 0.00 | 67 | 990.0 |
| 20260902060014 | 82 | 136 | 2.6 | 6.1 | 0.00 | 0.00 | 0.00 | 67 | 990.1 |
| 20260902054517 | 82 | 142 | 1.7 | 6.1 | 0.00 | 0.00 | 0.00 | 66 | 989.9 |
| 20260902053013 | 83 | 148 | 1.7 | 6.1 | 0.00 | 0.00 | 0.00 | 66 | 989.8 |
| 20260902051559 | 83 | 171 | 4.3 | 6.1 | 0.00 | 0.00 | 0.00 | 66 | 989.9 |
| 20260902050053 | 83 | 154 | 2.6 | 7.0 | 0.00 | 0.00 | 0.00 | 66 | 989.8 |
| 20260902044541 | 84 | 144 | 3.5 | 7.8 | 0.00 | 0.00 | 0.00 | 65 | 989.8 |
| 20260902043103 | 84 | 143 | 3.5 | 8.7 | 0.00 | 0.00 | 0.00 | 64 | 989.8 |
| 20260902041558 | 85 | 128 | 5.2 | 11.3 | 0.00 | 0.00 | 0.00 | 63 | 989.9 |
| 20260902040040 | 85 | 136 | 6.1 | 9.6 | 0.00 | 0.00 | 0.00 | 61 | 989.8 |
| 20260902034546 | 86 | 118 | 1.7 | 5.2 | 0.00 | 0.00 | 0.00 | 57 | 989.6 |
| 20260902033041 | 87 | 136 | 3.5 | 6.1 | 0.00 | 0.00 | 0.00 | 53 | 989.3 |
| 20260902031541 | 88 | 163 | 3.5 | 6.1 | 0.00 | 0.00 | 0.00 | 52 | 989.0 |
| 20260902030037 | 88 | 161 | 4.3 | 7.0 | 0.00 | 0.00 | 0.00 | 52 | 988.8 |
| 20260902024520 | 88 | 146 | 3.5 | 7.0 | 0.00 | 0.00 | 0.00 | 53 | 988.5 |
| 20260902023020 | 89 | 142 | 2.6 | 5.2 | 0.00 | 0.00 | 0.00 | 52 | 988.3 |
| 20260902021502 | 90 | 146 | 1.7 | 4.3 | 0.00 | 0.00 | 0.00 | 52 | 988.0 |
| 20260902020001 | 90 | 149 | 2.6 | 5.2 | 0.00 | 0.00 | 0.00 | 51 | 987.8 |
| 20260902014555 | 91 | 130 | 0.9 | 4.3 | 0.00 | 0.00 | 0.00 | 48 | 987.6 |
| 20260902013055 | 92 | 134 | 2.6 | 6.1 | 0.00 | 0.00 | 0.00 | 46 | 987.5 |
| 20260902011551 | 92 | 140 | 3.5 | 6.1 | 0.00 | 0.00 | 0.00 | 45 | 987.3 |
| 20260902010052 | 93 | 131 | 2.6 | 7.8 | 0.00 | 0.00 | 0.00 | 45 | 987.3 |
| 20260902004550 | 94 | 152 | 5.2 | 9.6 | 0.00 | 0.00 | 0.00 | 44 | 987.3 |
| 20260902003123 | 95 | 118 | 3.5 | 7.8 | 0.00 | 0.00 | 0.00 | 43 | 987.4 |
| 20260902001545 | 96 | 113 | 3.5 | 11.3 | 0.00 | 0.00 | 0.00 | 41 | 987.5 |
| 20260902000045 | 96 | 103 | 5.2 | 10.4 | 0.00 | 0.00 | 0.00 | 40 | 987.4 |
| 20260901234527 | 96 | 82 | 5.2 | 8.7 | 0.00 | 0.00 | 0.00 | 40 | 987.4 |
| 20260901233027 | 97 | 90 | 1.7 | 9.6 | 0.00 | 0.00 | 0.00 | 39 | 987.4 |
| 20260901231514 | 97 | 153 | 0.9 | 10.4 | 0.00 | 0.00 | 0.00 | 39 | 987.4 |
| 20260901230016 | 97 | 82 | 5.2 | 10.4 | 0.00 | 0.00 | 0.00 | 38 | 987.4 |
| 20260901224512 | 97 | 107 | 4.3 | 10.4 | 0.00 | 0.00 | 0.00 | 39 | 987.5 |
| 20260901223011 | 97 | 105 | 4.3 | 9.6 | 0.00 | 0.00 | 0.00 | 41 | 987.6 |
| 20260901221510 | 96 | 135 | 2.6 | 7.8 | 0.00 | 0.00 | 0.00 | 42 | 987.6 |
| 20260901220013 | 96 | 96 | 3.5 | 8.7 | 0.00 | 0.00 | 0.00 | 41 | 987.7 |
| 20260901214508 | 98 | 92 | 5.2 | 13.0 | 0.00 | 0.00 | 0.00 | 40 | 987.6 |
| 20260901213006 | 98 | 106 | 0.9 | 10.4 | 0.00 | 0.00 | 0.00 | 40 | 987.6 |
| 20260901211554 | 98 | 100 | 6.1 | 10.4 | 0.00 | 0.00 | 0.00 | 40 | 987.7 |
| 20260901210110 | 97 | 44 | 2.6 | 10.4 | 0.00 | 0.00 | 0.00 | 42 | 988.0 |
| 20260901204547 | 97 | 91 | 5.2 | 9.6 | 0.00 | 0.00 | 0.00 | 42 | 988.3 |
| 20260901203046 | 95 | 125 | 0.0 | 7.0 | 0.00 | 0.00 | 0.00 | 42 | 988.5 |
| 20260901201543 | 96 | 106 | 2.6 | 7.8 | 0.00 | 0.00 | 0.00 | 44 | 988.8 |
| 20260901200041 | 96 | 107 | 3.5 | 9.6 | 0.00 | 0.00 | 0.00 | 44 | 988.9 |
| 20260901194539 | 94 | 50 | 5.2 | 8.7 | 0.00 | 0.00 | 0.00 | 47 | 989.1 |
| 20260901193041 | 94 | 74 | 6.1 | 8.7 | 0.00 | 0.00 | 0.00 | 46 | 989.3 |
| 20260901191534 | 96 | 76 | 5.2 | 8.7 | 0.00 | 0.00 | 0.00 | 47 | 989.4 |
| 20260901190021 | 93 | 119 | 3.5 | 8.7 | 0.00 | 0.00 | 0.00 | 49 | 989.6 |
| 20260901184521 | 93 | 63 | 1.7 | 7.0 | 0.00 | 0.00 | 0.00 | 48 | 989.9 |
| 20260901183016 | 94 | 101 | 3.5 | 7.8 | 0.00 | 0.00 | 0.00 | 47 | 990.0 |
| 20260901181512 | 94 | 92 | 0.0 | 9.6 | 0.00 | 0.00 | 0.00 | 47 | 990.3 |
| 20260901180008 | 94 | 130 | 3.5 | 8.7 | 0.00 | 0.00 | 0.00 | 46 | 990.6 |
| 20260901174505 | 94 | 101 | 1.7 | 10.4 | 0.00 | 0.00 | 0.00 | 47 | 990.8 |
| 20260901173003 | 93 | 65 | 3.5 | 9.6 | 0.00 | 0.00 | 0.00 | 49 | 991.0 |
| 20260901171609 | 92 | 165 | 5.2 | 8.7 | 0.00 | 0.00 | 0.00 | 51 | 991.2 |
| 20260901170058 | 92 | 138 | 2.6 | 9.6 | 0.00 | 0.00 | 0.00 | 49 | 991.3 |
| 20260901164551 | 92 | 80 | 4.3 | 7.0 | 0.00 | 0.00 | 0.00 | 51 | 991.4 |
| 20260901163103 | 91 | 92 | 1.7 | 6.1 | 0.00 | 0.00 | 0.00 | 53 | 991.5 |
| 20260901161539 | 90 | 119 | 2.6 | 6.1 | 0.00 | 0.00 | 0.00 | 56 | 991.8 |
| 20260901160040 | 90 | 140 | 2.6 | 7.0 | 0.00 | 0.00 | 0.00 | 57 | 991.7 |
| 20260901154548 | 89 | 159 | 0.0 | 5.2 | 0.00 | 0.00 | 0.00 | 59 | 991.7 |
| 20260901153135 | 89 | 202 | 1.7 | 5.2 | 0.00 | 0.00 | 0.00 | 59 | 991.7 |
| 20260901151520 | 87 | 340 | 0.0 | 5.2 | 0.00 | 0.00 | 0.00 | 62 | 991.7 |
| 20260901150016 | 86 | 286 | 0.0 | 2.6 | 0.00 | 0.00 | 0.00 | 65 | 991.7 |
| 20260901144518 | 85 | 291 | 0.0 | 5.2 | 0.00 | 0.00 | 0.00 | 66 | 991.6 |
| 20260901143008 | 83 | 257 | 0.0 | 3.5 | 0.00 | 0.00 | 0.00 | 66 | 991.8 |
| 20260901141504 | 82 | 232 | 0.0 | 3.5 | 0.00 | 0.00 | 0.00 | 64 | 992.0 |
| 20260901140104 | 81 | 186 | 0.9 | 4.3 | 0.00 | 0.00 | 0.00 | 61 | 992.0 |
| 20260901134603 | 80 | 155 | 0.0 | 0.0 | 0.00 | 0.00 | 0.00 | 59 | 991.9 |
| 20260901133105 | 78 | 153 | 0.0 | 2.6 | 0.00 | 0.00 | 0.00 | 56 | 992.0 |
| 20260901131555 | 77 | 194 | 0.0 | 0.0 | 0.00 | 0.00 | 0.00 | 53 | 991.9 |
| 20260901130034 | 75 | 194 | 0.0 | 0.0 | 0.00 | 0.00 | 0.00 | 51 | 991.6 |
| 20260901124535 | 74 | 194 | 0.0 | 0.0 | 0.00 | 0.00 | 0.00 | 48 | 991.5 |
| 20260901123013 | 75 | 196 | 0.0 | 0.0 | 0.00 | 0.00 | 0.00 | 43 | 991.3 |
| 20260901121512 | 74 | 196 | 0.0 | 0.0 | 0.00 | 0.00 | 0.00 | 49 | 991.1 |
| 20260901120051 | 75 | 196 | 0.0 | 0.0 | 0.00 | 0.00 | 0.00 | 49 | 991.0 |
| 20260901114552 | 75 | 196 | 0.0 | 0.0 | 0.00 | 0.00 | 0.00 | 45 | 990.8 |
| 20260901113040 | 75 | 196 | 0.0 | 0.0 | 0.00 | 0.00 | 0.00 | 48 | 990.9 |
| 20260901111536 | 75 | 196 | 0.0 | 0.0 | 0.00 | 0.00 | 0.00 | 53 | 991.1 |
| 20260901110034 | 75 | 196 | 0.0 | 0.0 | 0.00 | 0.00 | 0.00 | 53 | 990.9 |
| 20260901104539 | 75 | 196 | 0.0 | 0.0 | 0.00 | 0.00 | 0.00 | 56 | 990.8 |